******** Week 143 almanac for PRN-1 ******** ID: 1 Health: 0 Eccentricity: 0.01123857498 Time of Applicability(s): 589824 Orbital Inclination(rad): 0.9864179567 Rate of Right Ascen(r/s): -7.748894201e-09 SQRT(A) (m 1/2): 5153.628418 Right Ascen at Week(rad): -1.162537228 Argument of Perigee(rad): 0.8833089067 Mean Anom(rad): -2.521690645 Af0(s): 0.0003655320435 Af1(s/s): -1.091394e-11 week: 143 ******** Week 143 almanac for PRN-2 ******** ID: 2 Health: 0 Eccentricity: 0.0206580162 Time of Applicability(s): 589824 Orbital Inclination(rad): 0.9647624623 Rate of Right Ascen(r/s): -7.908900866e-09 SQRT(A) (m 1/2): 5153.623535 Right Ascen at Week(rad): -1.251051589 Argument of Perigee(rad): -1.460256833 Mean Anom(rad): -2.355437238 Af0(s): -0.0005124985352 Af1(s/s): 0 week: 143 ******** Week 143 almanac for PRN-3 ******** ID: 3 Health: 0 Eccentricity: 0.003851413727 Time of Applicability(s): 589824 Orbital Inclination(rad): 0.972420382 Rate of Right Ascen(r/s): -7.977475151e-09 SQRT(A) (m 1/2): 5153.651367 Right Ascen at Week(rad): -0.127085215 Argument of Perigee(rad): 0.981391923 Mean Anom(rad): 2.591021259 Af0(s): -5.577189941e-05 Af1(s/s): -1.455192e-11 week: 143 ******** Week 143 almanac for PRN-4 ******** ID: 4 Health: 0 Eccentricity: 0.001644134521 Time of Applicability(s): 589824 Orbital Inclination(rad): 0.9609215182 Rate of Right Ascen(r/s): -7.817468486e-09 SQRT(A) (m 1/2): 5153.614746 Right Ascen at Week(rad): 0.9537570493 Argument of Perigee(rad): -3.112897926 Mean Anom(rad): -0.6918833842 Af0(s): -0.0001545032349 Af1(s/s): 0 week: 143 ******** Week 143 almanac for PRN-5 ******** ID: 5 Health: 0 Eccentricity: 0.005894184113 Time of Applicability(s): 589824 Orbital Inclination(rad): 0.9593995216 Rate of Right Ascen(r/s): -8.114623721e-09 SQRT(A) (m 1/2): 5153.590332 Right Ascen at Week(rad): -0.1669672175 Argument of Perigee(rad): 1.014780723 Mean Anom(rad): 0.1220716894 Af0(s): -5.275720215e-05 Af1(s/s): 0 week: 143 ******** Week 143 almanac for PRN-6 ******** ID: 6 Health: 0 Eccentricity: 0.002599239349 Time of Applicability(s): 589824 Orbital Inclination(rad): 0.9858007691 Rate of Right Ascen(r/s): -7.748894201e-09 SQRT(A) (m 1/2): 5153.604004 Right Ascen at Week(rad): -1.170806343 Argument of Perigee(rad): -1.006071562 Mean Anom(rad): -2.147505318 Af0(s): 0.0001303856567 Af1(s/s): 1.091394e-11 week: 143 ******** Week 143 almanac for PRN-7 ******** ID: 7 Health: 0 Eccentricity: 0.01541471481 Time of Applicability(s): 589824 Orbital Inclination(rad): 0.9506630217 Rate of Right Ascen(r/s): -7.931758961e-09 SQRT(A) (m 1/2): 5153.651367 Right Ascen at Week(rad): 1.973341199 Argument of Perigee(rad): -2.297025377 Mean Anom(rad): 3.102803464 Af0(s): 0.0002366537353 Af1(s/s): 3.637979e-12 week: 143 ******** Week 143 almanac for PRN-8 ******** ID: 8 Health: 0 Eccentricity: 0.007092475891 Time of Applicability(s): 589824 Orbital Inclination(rad): 0.9652238549 Rate of Right Ascen(r/s): -7.874613723e-09 SQRT(A) (m 1/2): 5153.65625 Right Ascen at Week(rad): -2.241945505 Argument of Perigee(rad): 0.07498042667 Mean Anom(rad): -0.2157096818 Af0(s): -4.069841309e-05 Af1(s/s): 0 week: 143 ******** Week 143 almanac for PRN-9 ******** ID: 9 Health: 0 Eccentricity: 0.002350330353 Time of Applicability(s): 589824 Orbital Inclination(rad): 0.9539407072 Rate of Right Ascen(r/s): -7.908900866e-09 SQRT(A) (m 1/2): 5153.591797 Right Ascen at Week(rad): 0.9010998631 Argument of Perigee(rad): 1.858665274 Mean Anom(rad): 0.107076428 Af0(s): -0.000283381543 Af1(s/s): 0 week: 143 ******** Week 143 almanac for PRN-10 ******** ID: 10 Health: 0 Eccentricity: 0.007423400879 Time of Applicability(s): 589824 Orbital Inclination(rad): 0.972258595 Rate of Right Ascen(r/s): -7.966046103e-09 SQRT(A) (m 1/2): 5153.627441 Right Ascen at Week(rad): -0.1298846551 Argument of Perigee(rad): -2.541062396 Mean Anom(rad): 1.75918722 Af0(s): -0.0002283633179 Af1(s/s): -1.091394e-11 week: 143 ******** Week 143 almanac for PRN-11 ******** ID: 11 Health: 255 Eccentricity: 0.0003142356873 Time of Applicability(s): 589824 Orbital Inclination(rad): 0.9615327137 Rate of Right Ascen(r/s): -8.011762293e-09 SQRT(A) (m 1/2): 5153.70752 Right Ascen at Week(rad): -1.117870898 Argument of Perigee(rad): 2.797570873 Mean Anom(rad): -0.304466724 Af0(s): -1.959553223e-05 Af1(s/s): -3.637979e-11 week: 143 ******** Week 143 almanac for PRN-12 ******** ID: 12 Health: 0 Eccentricity: 0.008553028107 Time of Applicability(s): 589824 Orbital Inclination(rad): 0.9710841409 Rate of Right Ascen(r/s): -7.931758961e-09 SQRT(A) (m 1/2): 5153.570801 Right Ascen at Week(rad): 3.085622954 Argument of Perigee(rad): 1.235381092 Mean Anom(rad): 2.435410967 Af0(s): -0.0001205878906 Af1(s/s): -7.275958e-12 week: 143 ******** Week 143 almanac for PRN-13 ******** ID: 13 Health: 0 Eccentricity: 0.005786418915 Time of Applicability(s): 589824 Orbital Inclination(rad): 0.9683337613 Rate of Right Ascen(r/s): -7.714607058e-09 SQRT(A) (m 1/2): 5153.628906 Right Ascen at Week(rad): 1.053355321 Argument of Perigee(rad): 0.9742362172 Mean Anom(rad): -0.8416105452 Af0(s): 0.0001914332764 Af1(s/s): 7.275958e-12 week: 143 ******** Week 143 almanac for PRN-14 ******** ID: 14 Health: 0 Eccentricity: 0.001304149628 Time of Applicability(s): 589824 Orbital Inclination(rad): 0.9544859894 Rate of Right Ascen(r/s): -8.103194673e-09 SQRT(A) (m 1/2): 5153.588379 Right Ascen at Week(rad): 3.05493847 Argument of Perigee(rad): 3.04894074 Mean Anom(rad): 2.466517895 Af0(s): -5.351087646e-05 Af1(s/s): -7.275958e-12 week: 143 ******** Week 143 almanac for PRN-15 ******** ID: 15 Health: 0 Eccentricity: 0.01391792297 Time of Applicability(s): 589824 Orbital Inclination(rad): 0.9298404309 Rate of Right Ascen(r/s): -8.160339911e-09 SQRT(A) (m 1/2): 5153.665527 Right Ascen at Week(rad): 0.7960416535 Argument of Perigee(rad): 1.069729143 Mean Anom(rad): -1.233612295 Af0(s): -7.386008301e-05 Af1(s/s): 3.637979e-12 week: 143 ******** Week 143 almanac for PRN-16 ******** ID: 16 Health: 0 Eccentricity: 0.01261281967 Time of Applicability(s): 589824 Orbital Inclination(rad): 0.9710601725 Rate of Right Ascen(r/s): -7.931758961e-09 SQRT(A) (m 1/2): 5153.532227 Right Ascen at Week(rad): 3.104254679 Argument of Perigee(rad): 0.694885058 Mean Anom(rad): 0.5779433659 Af0(s): -0.0003579953003 Af1(s/s): -7.275958e-12 week: 143 ******** Week 143 almanac for PRN-17 ******** ID: 17 Health: 0 Eccentricity: 0.01373958588 Time of Applicability(s): 589824 Orbital Inclination(rad): 0.980252073 Rate of Right Ascen(r/s): -7.726036106e-09 SQRT(A) (m 1/2): 5153.692871 Right Ascen at Week(rad): -2.16060857 Argument of Perigee(rad): -1.511258324 Mean Anom(rad): -0.3126272321 Af0(s): 0.0004416531494 Af1(s/s): 3.637979e-12 week: 143 ******** Week 143 almanac for PRN-18 ******** ID: 18 Health: 0 Eccentricity: 0.002093315124 Time of Applicability(s): 589824 Orbital Inclination(rad): 0.9702092925 Rate of Right Ascen(r/s): -7.886042771e-09 SQRT(A) (m 1/2): 5153.583008 Right Ascen at Week(rad): -1.154157258 Argument of Perigee(rad): 3.102512472 Mean Anom(rad): -2.328477975 Af0(s): 0.0002087677856 Af1(s/s): -7.275958e-12 week: 143 ******** Week 143 almanac for PRN-19 ******** ID: 19 Health: 0 Eccentricity: 0.008919715881 Time of Applicability(s): 589824 Orbital Inclination(rad): 0.9789457925 Rate of Right Ascen(r/s): -7.737465153e-09 SQRT(A) (m 1/2): 5153.633301 Right Ascen at Week(rad): -2.115683456 Argument of Perigee(rad): 1.994184388 Mean Anom(rad): 2.081834387 Af0(s): 8.139682617e-05 Af1(s/s): 3.637979e-12 week: 143 ******** Week 143 almanac for PRN-20 ******** ID: 20 Health: 0 Eccentricity: 0.005330085754 Time of Applicability(s): 589824 Orbital Inclination(rad): 0.9415490186 Rate of Right Ascen(r/s): -8.297488481e-09 SQRT(A) (m 1/2): 5153.662598 Right Ascen at Week(rad): -0.2802600877 Argument of Perigee(rad): 3.095027949 Mean Anom(rad): -1.451547672 Af0(s): 0.0004084914795 Af1(s/s): 0 week: 143 ******** Week 143 almanac for PRN-21 ******** ID: 21 Health: 0 Eccentricity: 0.02448320389 Time of Applicability(s): 589824 Orbital Inclination(rad): 0.9590040422 Rate of Right Ascen(r/s): -7.920329913e-09 SQRT(A) (m 1/2): 5153.549805 Right Ascen at Week(rad): -1.252441759 Argument of Perigee(rad): -1.02994264 Mean Anom(rad): -0.159454232 Af0(s): 0.0001228489136 Af1(s/s): 0 week: 143 ******** Week 143 almanac for PRN-22 ******** ID: 22 Health: 255 Eccentricity: 0.00686788559 Time of Applicability(s): 589824 Orbital Inclination(rad): 0.9382833174 Rate of Right Ascen(r/s): -8.308917528e-09 SQRT(A) (m 1/2): 5153.578613 Right Ascen at Week(rad): -0.2344571291 Argument of Perigee(rad): -0.8607231369 Mean Anom(rad): -1.42203502 Af0(s): -0.0003338777222 Af1(s/s): 7.275958e-12 week: 143 ******** Week 143 almanac for PRN-23 ******** ID: 23 Health: 0 Eccentricity: 0.001957893372 Time of Applicability(s): 589824 Orbital Inclination(rad): 0.9672911337 Rate of Right Ascen(r/s): -8.023191341e-09 SQRT(A) (m 1/2): 5153.644531 Right Ascen at Week(rad): -0.1545395763 Argument of Perigee(rad): 2.904471283 Mean Anom(rad): 3.114101966 Af0(s): 1.055144043e-05 Af1(s/s): -3.637979e-12 week: 143 ******** Week 143 almanac for PRN-24 ******** ID: 24 Health: 0 Eccentricity: 0.01225757599 Time of Applicability(s): 589824 Orbital Inclination(rad): 0.9341128071 Rate of Right Ascen(r/s): -8.103194673e-09 SQRT(A) (m 1/2): 5153.641602 Right Ascen at Week(rad): 1.891212931 Argument of Perigee(rad): 0.7993657779 Mean Anom(rad): -2.213538772 Af0(s): 0.0002193192261 Af1(s/s): 0 week: 143 ******** Week 143 almanac for PRN-25 ******** ID: 25 Health: 0 Eccentricity: 0.01033258438 Time of Applicability(s): 589824 Orbital Inclination(rad): 0.9584707442 Rate of Right Ascen(r/s): -8.057478483e-09 SQRT(A) (m 1/2): 5153.671875 Right Ascen at Week(rad): 3.009392797 Argument of Perigee(rad): 0.9699997937 Mean Anom(rad): 2.208922224 Af0(s): 0.0002117824829 Af1(s/s): 7.275958e-12 week: 143 ******** Week 143 almanac for PRN-26 ******** ID: 26 Health: 0 Eccentricity: 0.006747722626 Time of Applicability(s): 589824 Orbital Inclination(rad): 0.9393079686 Rate of Right Ascen(r/s): -8.274630386e-09 SQRT(A) (m 1/2): 5153.620605 Right Ascen at Week(rad): 2.963126574 Argument of Perigee(rad): 0.3443974124 Mean Anom(rad): 1.561035925 Af0(s): 0.0001364150513 Af1(s/s): 3.637979e-12 week: 143 ******** Week 143 almanac for PRN-27 ******** ID: 27 Health: 0 Eccentricity: 0.00997877121 Time of Applicability(s): 589824 Orbital Inclination(rad): 0.9738944417 Rate of Right Ascen(r/s): -7.794610391e-09 SQRT(A) (m 1/2): 5153.604004 Right Ascen at Week(rad): -2.222826921 Argument of Perigee(rad): 0.6279906126 Mean Anom(rad): -0.2939501921 Af0(s): 4.446678467e-05 Af1(s/s): 2.182787e-11 week: 143 ******** Week 143 almanac for PRN-29 ******** ID: 29 Health: 0 Eccentricity: 0.001753330231 Time of Applicability(s): 589824 Orbital Inclination(rad): 0.9822354622 Rate of Right Ascen(r/s): -7.714607058e-09 SQRT(A) (m 1/2): 5153.724609 Right Ascen at Week(rad): -2.147677591 Argument of Perigee(rad): 2.301275282 Mean Anom(rad): -0.193184582 Af0(s): -0.0003670393921 Af1(s/s): -3.637979e-12 week: 143 ******** Week 143 almanac for PRN-30 ******** ID: 30 Health: 0 Eccentricity: 0.005407810211 Time of Applicability(s): 589824 Orbital Inclination(rad): 0.9358445276 Rate of Right Ascen(r/s): -8.103194673e-09 SQRT(A) (m 1/2): 5153.537109 Right Ascen at Week(rad): 1.987063511 Argument of Perigee(rad): -2.753148722 Mean Anom(rad): 3.110769228 Af0(s): -0.0003994473877 Af1(s/s): -3.637979e-12 week: 143 ******** Week 143 almanac for PRN-31 ******** ID: 31 Health: 0 Eccentricity: 0.01045846939 Time of Applicability(s): 589824 Orbital Inclination(rad): 0.9549174215 Rate of Right Ascen(r/s): -7.897471818e-09 SQRT(A) (m 1/2): 5153.617676 Right Ascen at Week(rad): 1.991289823 Argument of Perigee(rad): 0.3636099974 Mean Anom(rad): 2.651291424 Af0(s): -0.0001258636108 Af1(s/s): 0 week: 143 ******** Week 143 almanac for PRN-32 ******** ID: 32 Health: 0 Eccentricity: 0.005394458771 Time of Applicability(s): 589824 Orbital Inclination(rad): 0.9577996276 Rate of Right Ascen(r/s): -7.851755628e-09 SQRT(A) (m 1/2): 5153.710938 Right Ascen at Week(rad): 0.9121358362 Argument of Perigee(rad): -2.37904691 Mean Anom(rad): 0.3960224572 Af0(s): -3.768371582e-05 Af1(s/s): -7.275958e-12 week: 143